| time (UTC) | temp F | wind direction | speed MPH | gust MPH | rain 1hr in | rain 24hr in | rain mn in | humidity % | barometer mb |
| 20260508013040 | 49 | 360 | 0.0 | 0.0 | 0.00 | 0.00 | 0.00 | 55 | 1009.7 |
| 20260508012540 | 49 | 360 | 0.0 | 0.0 | 0.00 | 0.00 | 0.00 | 55 | 1009.7 |
| 20260508012040 | 49 | 360 | 0.0 | 0.0 | 0.00 | 0.00 | 0.00 | 56 | 1009.7 |
| 20260508011540 | 49 | 360 | 0.0 | 0.0 | 0.00 | 0.00 | 0.00 | 54 | 1009.6 |
| 20260508011039 | 50 | 360 | 0.0 | 1.0 | 0.00 | 0.00 | 0.00 | 54 | 1009.4 |
| 20260508010539 | 50 | 360 | 0.0 | 1.0 | 0.00 | 0.00 | 0.00 | 54 | 1009.3 |
| 20260508010050 | 50 | 360 | 0.0 | 2.0 | 0.00 | 0.00 | 0.00 | 54 | 1009.4 |
| 20260508005541 | 50 | 360 | 0.0 | 2.0 | 0.00 | 0.00 | 0.00 | 53 | 1009.3 |
| 20260508005039 | 50 | 360 | 0.0 | 0.0 | 0.00 | 0.00 | 0.00 | 52 | 1009.2 |
| 20260508004549 | 50 | 360 | 0.0 | 0.0 | 0.00 | 0.00 | 0.00 | 52 | 1009.0 |
| 20260508004039 | 51 | 360 | 0.0 | 0.0 | 0.00 | 0.00 | 0.00 | 52 | 1009.0 |
| 20260508003538 | 51 | 360 | 0.0 | 0.0 | 0.00 | 0.00 | 0.00 | 51 | 1008.9 |
| 20260508003039 | 52 | 360 | 0.0 | 0.0 | 0.00 | 0.00 | 0.00 | 50 | 1008.9 |
| 20260508002538 | 52 | 22 | 0.0 | 0.0 | 0.00 | 0.00 | 0.00 | 50 | 1008.8 |
| 20260508002038 | 53 | 360 | 0.0 | 2.0 | 0.00 | 0.00 | 0.00 | 48 | 1008.7 |
| 20260508001544 | 53 | 360 | 0.0 | 2.0 | 0.00 | 0.00 | 0.00 | 50 | 1008.6 |
| 20260508001037 | 53 | 14 | 0.0 | 3.0 | 0.00 | 0.00 | 0.00 | 51 | 1008.4 |
| 20260508000538 | 54 | 14 | 1.0 | 3.0 | 0.00 | 0.00 | 0.00 | 48 | 1008.3 |
| 20260508000037 | 55 | 343 | 0.0 | 4.0 | 0.00 | 0.00 | 0.00 | 46 | 1008.4 |
| 20260507235537 | 55 | 342 | 1.0 | 4.0 | 0.00 | 0.00 | 0.00 | 44 | 1008.4 |
| 20260507235037 | 56 | 350 | 0.0 | 4.0 | 0.00 | 0.00 | 0.00 | 43 | 1008.3 |
| 20260507234537 | 56 | 349 | 1.0 | 5.0 | 0.00 | 0.00 | 0.00 | 41 | 1008.4 |
| 20260507234036 | 57 | 349 | 2.0 | 5.0 | 0.00 | 0.00 | 0.00 | 40 | 1008.4 |
| 20260507233536 | 57 | 338 | 3.0 | 9.0 | 0.00 | 0.00 | 0.00 | 40 | 1008.3 |
| 20260507233036 | 57 | 327 | 4.0 | 9.0 | 0.00 | 0.00 | 0.00 | 39 | 1008.3 |
| 20260507232535 | 57 | 340 | 2.0 | 5.0 | 0.00 | 0.00 | 0.00 | 41 | 1008.3 |
| 20260507232035 | 57 | 339 | 1.0 | 4.0 | 0.00 | 0.00 | 0.00 | 41 | 1008.2 |
| 20260507231539 | 57 | 338 | 2.0 | 8.0 | 0.00 | 0.00 | 0.00 | 40 | 1008.2 |
| 20260507231137 | 58 | 348 | 2.0 | 8.0 | 0.00 | 0.00 | 0.00 | 39 | 1008.3 |
| 20260507230537 | 58 | 317 | 2.0 | 6.0 | 0.00 | 0.00 | 0.00 | 37 | 1008.2 |
| 20260507230038 | 58 | 327 | 3.0 | 8.0 | 0.00 | 0.00 | 0.00 | 38 | 1008.2 |
| 20260507225535 | 58 | 327 | 3.0 | 10.0 | 0.00 | 0.00 | 0.00 | 39 | 1008.2 |
| 20260507225034 | 58 | 333 | 3.0 | 10.0 | 0.00 | 0.00 | 0.00 | 39 | 1008.2 |
| 20260507224535 | 59 | 360 | 5.0 | 10.0 | 0.00 | 0.00 | 0.00 | 38 | 1008.1 |
| 20260507224034 | 60 | 355 | 1.0 | 5.0 | 0.00 | 0.00 | 0.00 | 38 | 1008.1 |
| 20260507223536 | 60 | 336 | 2.0 | 8.0 | 0.00 | 0.00 | 0.00 | 37 | 1008.1 |
| 20260507223035 | 60 | 310 | 4.0 | 9.0 | 0.00 | 0.00 | 0.00 | 36 | 1008.1 |
| 20260507222534 | 59 | 339 | 4.0 | 9.0 | 0.00 | 0.00 | 0.00 | 38 | 1008.2 |
| 20260507222037 | 60 | 342 | 4.0 | 8.0 | 0.00 | 0.00 | 0.00 | 38 | 1008.3 |
| 20260507221539 | 60 | 316 | 2.0 | 10.0 | 0.00 | 0.00 | 0.00 | 36 | 1008.1 |
| 20260507221033 | 60 | 320 | 5.0 | 10.0 | 0.00 | 0.00 | 0.00 | 35 | 1008.2 |
| 20260507220533 | 61 | 355 | 3.0 | 8.0 | 0.00 | 0.00 | 0.00 | 34 | 1008.2 |
| 20260507220032 | 61 | 256 | 2.0 | 8.0 | 0.00 | 0.00 | 0.00 | 36 | 1008.1 |
| 20260507215532 | 61 | 334 | 3.0 | 10.0 | 0.00 | 0.00 | 0.00 | 36 | 1008.2 |
| 20260507215035 | 61 | 246 | 2.0 | 10.0 | 0.00 | 0.00 | 0.00 | 38 | 1008.2 |
| 20260507214536 | 61 | 321 | 5.0 | 10.0 | 0.00 | 0.00 | 0.00 | 36 | 1008.2 |
| 20260507214032 | 60 | 329 | 3.0 | 15.0 | 0.00 | 0.00 | 0.00 | 38 | 1008.1 |
| 20260507213531 | 59 | 231 | 3.0 | 15.0 | 0.00 | 0.00 | 0.00 | 37 | 1008.2 |
| 20260507213032 | 61 | 344 | 3.0 | 11.0 | 0.00 | 0.00 | 0.00 | 36 | 1008.2 |
| 20260507212531 | 61 | 340 | 3.0 | 11.0 | 0.00 | 0.00 | 0.00 | 38 | 1008.0 |
| 20260507212031 | 62 | 337 | 3.0 | 11.0 | 0.00 | 0.00 | 0.00 | 39 | 1008.1 |
| 20260507211531 | 62 | 340 | 3.0 | 10.0 | 0.00 | 0.00 | 0.00 | 39 | 1008.1 |
| 20260507211030 | 60 | 15 | 3.0 | 13.0 | 0.00 | 0.00 | 0.00 | 38 | 1008.0 |
| 20260507210533 | 60 | 347 | 7.0 | 13.0 | 0.00 | 0.00 | 0.00 | 39 | 1008.1 |
| 20260507210030 | 60 | 41 | 6.0 | 11.0 | 0.00 | 0.00 | 0.00 | 37 | 1008.1 |
| 20260507205530 | 61 | 311 | 5.0 | 12.0 | 0.00 | 0.00 | 0.00 | 37 | 1007.9 |
| 20260507205031 | 61 | 300 | 6.0 | 12.0 | 0.00 | 0.00 | 0.00 | 37 | 1008.0 |
| 20260507204529 | 61 | 342 | 6.0 | 12.0 | 0.00 | 0.00 | 0.00 | 36 | 1007.8 |
| 20260507204029 | 60 | 329 | 4.0 | 14.0 | 0.00 | 0.00 | 0.00 | 41 | 1007.8 |
| 20260507203532 | 61 | 351 | 7.0 | 14.0 | 0.00 | 0.00 | 0.00 | 36 | 1007.9 |
| 20260507203040 | 62 | 289 | 4.0 | 13.0 | 0.00 | 0.00 | 0.00 | 37 | 1007.8 |
| 20260507202531 | 62 | 344 | 9.0 | 13.0 | 0.00 | 0.00 | 0.00 | 35 | 1007.8 |
| 20260507202028 | 62 | 355 | 3.0 | 18.0 | 0.00 | 0.00 | 0.00 | 37 | 1007.8 |
| 20260507201531 | 62 | 293 | 8.0 | 14.0 | 0.00 | 0.00 | 0.00 | 35 | 1007.9 |
| 20260507201027 | 61 | 323 | 7.0 | 16.0 | 0.00 | 0.00 | 0.00 | 37 | 1008.1 |
| 20260507200627 | 62 | 350 | 5.0 | 16.0 | 0.00 | 0.00 | 0.00 | 37 | 1008.0 |
| 20260507200026 | 61 | 36 | 3.0 | 9.0 | 0.00 | 0.00 | 0.00 | 38 | 1007.9 |
| 20260507195530 | 61 | 321 | 3.0 | 9.0 | 0.00 | 0.00 | 0.00 | 36 | 1008.0 |
| 20260507195029 | 60 | 333 | 3.0 | 14.0 | 0.00 | 0.00 | 0.00 | 39 | 1008.1 |
| 20260507194529 | 60 | 355 | 3.0 | 14.0 | 0.00 | 0.00 | 0.00 | 38 | 1008.2 |
| 20260507194026 | 60 | 313 | 4.0 | 15.0 | 0.00 | 0.00 | 0.00 | 37 | 1008.2 |
| 20260507193526 | 61 | 349 | 5.0 | 15.0 | 0.00 | 0.00 | 0.00 | 35 | 1008.2 |
| 20260507193025 | 63 | 279 | 4.0 | 13.0 | 0.00 | 0.00 | 0.00 | 36 | 1008.2 |
| 20260507192523 | 63 | 15 | 6.0 | 13.0 | 0.00 | 0.00 | 0.00 | 37 | 1008.2 |
| 20260507192024 | 63 | 321 | 3.0 | 9.0 | 0.00 | 0.00 | 0.00 | 37 | 1008.2 |
| 20260507191521 | 62 | 321 | 4.0 | 10.0 | 0.00 | 0.00 | 0.00 | 38 | 1008.4 |
| 20260507191020 | 61 | 336 | 3.0 | 14.0 | 0.00 | 0.00 | 0.00 | 37 | 1008.4 |
| 20260507190520 | 61 | 344 | 4.0 | 14.0 | 0.00 | 0.00 | 0.00 | 37 | 1008.4 |
| 20260507190020 | 62 | 322 | 1.0 | 13.0 | 0.00 | 0.00 | 0.00 | 38 | 1008.5 |
| 20260507185519 | 62 | 344 | 6.0 | 13.0 | 0.00 | 0.00 | 0.00 | 35 | 1008.5 |
| 20260507185019 | 63 | 319 | 3.0 | 13.0 | 0.00 | 0.00 | 0.00 | 38 | 1008.5 |
| 20260507184522 | 62 | 271 | 2.0 | 13.0 | 0.00 | 0.00 | 0.00 | 38 | 1008.5 |
| 20260507184020 | 62 | 335 | 5.0 | 12.0 | 0.00 | 0.00 | 0.00 | 37 | 1008.7 |
| 20260507183517 | 61 | 5 | 3.0 | 14.0 | 0.00 | 0.00 | 0.00 | 36 | 1008.7 |
| 20260507183018 | 63 | 317 | 1.0 | 15.0 | 0.00 | 0.00 | 0.00 | 42 | 1008.7 |
| 20260507182517 | 61 | 323 | 8.0 | 15.0 | 0.00 | 0.00 | 0.00 | 37 | 1008.8 |
| 20260507182016 | 62 | 350 | 3.0 | 16.0 | 0.00 | 0.00 | 0.00 | 40 | 1008.9 |
| 20260507181516 | 62 | 321 | 6.0 | 16.0 | 0.00 | 0.00 | 0.00 | 35 | 1009.0 |
| 20260507181020 | 62 | 321 | 5.0 | 9.0 | 0.00 | 0.00 | 0.00 | 37 | 1008.9 |
| 20260507180516 | 62 | 282 | 2.0 | 13.0 | 0.00 | 0.00 | 0.00 | 47 | 1008.9 |
| 20260507180018 | 61 | 325 | 1.0 | 13.0 | 0.00 | 0.00 | 0.00 | 36 | 1008.9 |
| 20260507175515 | 60 | 360 | 2.0 | 8.0 | 0.00 | 0.00 | 0.00 | 40 | 1009.2 |
| 20260507175017 | 60 | 325 | 3.0 | 13.0 | 0.00 | 0.00 | 0.00 | 38 | 1009.3 |
| 20260507174522 | 61 | 348 | 7.0 | 13.0 | 0.00 | 0.00 | 0.00 | 38 | 1009.3 |
| 20260507174015 | 62 | 326 | 2.0 | 12.0 | 0.00 | 0.00 | 0.00 | 41 | 1009.3 |
| 20260507173512 | 60 | 340 | 5.0 | 13.0 | 0.00 | 0.00 | 0.00 | 37 | 1009.4 |
| 20260507173025 | 60 | 327 | 7.0 | 16.0 | 0.00 | 0.00 | 0.00 | 37 | 1009.3 |
| 20260507172512 | 61 | 251 | 5.0 | 16.0 | 0.00 | 0.00 | 0.00 | 41 | 1009.4 |
| 20260507172011 | 61 | 263 | 6.0 | 12.0 | 0.00 | 0.00 | 0.00 | 35 | 1009.3 |
| 20260507171518 | 61 | 299 | 0.0 | 10.0 | 0.00 | 0.00 | 0.00 | 40 | 1009.3 |
| 20260507171011 | 61 | 235 | 2.0 | 8.0 | 0.00 | 0.00 | 0.00 | 43 | 1009.3 |
| 20260507170511 | 60 | 5 | 1.0 | 10.0 | 0.00 | 0.00 | 0.00 | 38 | 1009.4 |
| 20260507170010 | 60 | 313 | 4.0 | 10.0 | 0.00 | 0.00 | 0.00 | 42 | 1009.5 |
| 20260507165511 | 59 | 49 | 2.0 | 10.0 | 0.00 | 0.00 | 0.00 | 41 | 1009.6 |
| 20260507165009 | 60 | 270 | 4.0 | 9.0 | 0.00 | 0.00 | 0.00 | 38 | 1009.6 |
| 20260507164509 | 61 | 69 | 1.0 | 9.0 | 0.00 | 0.00 | 0.00 | 41 | 1009.7 |
| 20260507164009 | 60 | 11 | 3.0 | 7.0 | 0.00 | 0.00 | 0.00 | 38 | 1009.7 |
| 20260507163512 | 60 | 269 | 3.0 | 7.0 | 0.00 | 0.00 | 0.00 | 44 | 1009.7 |
| 20260507163006 | 59 | 5 | 1.0 | 11.0 | 0.00 | 0.00 | 0.00 | 42 | 1009.9 |
| 20260507162509 | 60 | 27 | 4.0 | 11.0 | 0.00 | 0.00 | 0.00 | 41 | 1010.0 |
| 20260507162006 | 60 | 13 | 4.0 | 10.0 | 0.00 | 0.00 | 0.00 | 41 | 1010.1 |
| 20260507161505 | 59 | 346 | 1.0 | 10.0 | 0.00 | 0.00 | 0.00 | 47 | 1010.1 |
| 20260507161004 | 59 | 317 | 3.0 | 8.0 | 0.00 | 0.00 | 0.00 | 43 | 1010.2 |
| 20260507160505 | 59 | 37 | 1.0 | 5.0 | 0.00 | 0.00 | 0.00 | 41 | 1010.3 |
| 20260507160004 | 58 | 318 | 1.0 | 9.0 | 0.00 | 0.00 | 0.00 | 40 | 1010.5 |
| 20260507155502 | 58 | 325 | 2.0 | 9.0 | 0.00 | 0.00 | 0.00 | 42 | 1010.6 |
| 20260507155004 | 57 | 28 | 1.0 | 6.0 | 0.00 | 0.00 | 0.00 | 42 | 1010.7 |
| 20260507154502 | 58 | 323 | 4.0 | 9.0 | 0.00 | 0.00 | 0.00 | 41 | 1010.8 |
| 20260507154001 | 57 | 76 | 4.0 | 9.0 | 0.00 | 0.00 | 0.00 | 42 | 1010.9 |
| 20260507153501 | 57 | 304 | 3.0 | 10.0 | 0.00 | 0.00 | 0.00 | 45 | 1010.9 |
| 20260507153001 | 57 | 26 | 1.0 | 11.0 | 0.00 | 0.00 | 0.00 | 46 | 1010.9 |
| 20260507152501 | 57 | 286 | 4.0 | 9.0 | 0.00 | 0.00 | 0.00 | 49 | 1011.0 |
| 20260507152101 | 56 | 355 | 1.0 | 5.0 | 0.00 | 0.00 | 0.00 | 44 | 1011.0 |
| 20260507151610 | 57 | 215 | 2.0 | 6.0 | 0.00 | 0.00 | 0.00 | 44 | 1011.0 |
| 20260507151100 | 56 | 329 | 1.0 | 8.0 | 0.00 | 0.00 | 0.00 | 47 | 1011.0 |
| 20260507150600 | 56 | 321 | 3.0 | 12.0 | 0.00 | 0.00 | 0.00 | 43 | 1011.0 |
| 20260507150059 | 56 | 332 | 6.0 | 12.0 | 0.00 | 0.00 | 0.00 | 42 | 1011.2 |
| 20260507145559 | 56 | 309 | 5.0 | 12.0 | 0.00 | 0.00 | 0.00 | 45 | 1011.1 |
| 20260507145058 | 56 | 205 | 3.0 | 11.0 | 0.00 | 0.00 | 0.00 | 48 | 1011.1 |
| 20260507144612 | 56 | 335 | 4.0 | 11.0 | 0.00 | 0.00 | 0.00 | 47 | 1011.1 |
| 20260507144058 | 55 | 322 | 2.0 | 9.0 | 0.00 | 0.00 | 0.00 | 43 | 1011.2 |
| 20260507143554 | 54 | 163 | 2.0 | 9.0 | 0.00 | 0.00 | 0.00 | 50 | 1011.2 |
| 20260507143101 | 54 | 355 | 3.0 | 8.0 | 0.00 | 0.00 | 0.00 | 44 | 1011.3 |
| 20260507142555 | 54 | 269 | 2.0 | 6.0 | 0.00 | 0.00 | 0.00 | 47 | 1011.3 |
| 20260507142056 | 54 | 355 | 1.0 | 8.0 | 0.00 | 0.00 | 0.00 | 46 | 1011.4 |
| 20260507141600 | 54 | 342 | 3.0 | 9.0 | 0.00 | 0.00 | 0.00 | 50 | 1011.5 |
| 20260507141053 | 54 | 239 | 3.0 | 9.0 | 0.00 | 0.00 | 0.00 | 49 | 1011.4 |
| 20260507140553 | 54 | 53 | 2.0 | 6.0 | 0.00 | 0.00 | 0.00 | 52 | 1011.3 |
| 20260507140052 | 54 | 42 | 2.0 | 4.0 | 0.00 | 0.00 | 0.00 | 50 | 1011.4 |
| 20260507135550 | 53 | 41 | 1.0 | 5.0 | 0.00 | 0.00 | 0.00 | 52 | 1011.5 |
| 20260507135049 | 53 | 57 | 1.0 | 11.0 | 0.00 | 0.00 | 0.00 | 49 | 1011.5 |
| 20260507134553 | 53 | 343 | 2.0 | 11.0 | 0.00 | 0.00 | 0.00 | 51 | 1011.5 |
| 20260507134048 | 53 | 340 | 2.0 | 8.0 | 0.00 | 0.00 | 0.00 | 52 | 1011.6 |
| 20260507133547 | 52 | 347 | 3.0 | 9.0 | 0.00 | 0.00 | 0.00 | 47 | 1011.6 |
| 20260507133120 | 52 | 344 | 3.0 | 10.0 | 0.00 | 0.00 | 0.00 | 47 | 1011.6 |
| 20260507132546 | 52 | 348 | 4.0 | 10.0 | 0.00 | 0.00 | 0.00 | 49 | 1011.5 |
| 20260507132045 | 51 | 336 | 4.0 | 10.0 | 0.00 | 0.00 | 0.00 | 49 | 1011.5 |
| 20260507131547 | 51 | 331 | 3.0 | 11.0 | 0.00 | 0.00 | 0.00 | 49 | 1011.5 |
| 20260507131045 | 51 | 326 | 5.0 | 12.0 | 0.00 | 0.00 | 0.00 | 50 | 1011.5 |
| 20260507130546 | 51 | 340 | 5.0 | 12.0 | 0.00 | 0.00 | 0.00 | 50 | 1011.4 |
| 20260507130057 | 51 | 334 | 3.0 | 10.0 | 0.00 | 0.00 | 0.00 | 53 | 1011.3 |
| 20260507125544 | 50 | 309 | 3.0 | 14.0 | 0.00 | 0.00 | 0.00 | 56 | 1011.3 |
| 20260507125042 | 50 | 339 | 5.0 | 14.0 | 0.00 | 0.00 | 0.00 | 53 | 1011.3 |
| 20260507124548 | 50 | 44 | 2.0 | 10.0 | 0.00 | 0.00 | 0.00 | 57 | 1011.3 |
| 20260507124042 | 50 | 324 | 3.0 | 10.0 | 0.00 | 0.00 | 0.00 | 59 | 1011.4 |
| 20260507123543 | 50 | 5 | 2.0 | 5.0 | 0.00 | 0.00 | 0.00 | 61 | 1011.4 |
| 20260507123047 | 49 | 311 | 1.0 | 8.0 | 0.00 | 0.00 | 0.00 | 64 | 1011.4 |
| 20260507122543 | 49 | 314 | 3.0 | 6.0 | 0.00 | 0.00 | 0.00 | 63 | 1011.3 |
| 20260507122040 | 49 | 327 | 2.0 | 6.0 | 0.00 | 0.00 | 0.00 | 63 | 1011.3 |
| 20260507121542 | 49 | 336 | 1.0 | 6.0 | 0.00 | 0.00 | 0.00 | 64 | 1011.3 |
| 20260507121039 | 48 | 333 | 2.0 | 5.0 | 0.00 | 0.00 | 0.00 | 64 | 1011.3 |
| 20260507120539 | 48 | 332 | 0.0 | 6.0 | 0.00 | 0.00 | 0.00 | 65 | 1011.3 |
| 20260507120039 | 48 | 327 | 3.0 | 8.0 | 0.00 | 0.00 | 0.00 | 63 | 1011.2 |
| 20260507115539 | 48 | 337 | 3.0 | 11.0 | 0.00 | 0.00 | 0.00 | 65 | 1011.2 |
| 20260507115038 | 48 | 338 | 5.0 | 11.0 | 0.00 | 0.00 | 0.00 | 64 | 1011.2 |
| 20260507114549 | 48 | 321 | 2.0 | 9.0 | 0.00 | 0.00 | 0.00 | 65 | 1011.3 |
| 20260507114037 | 47 | 326 | 2.0 | 8.0 | 0.00 | 0.00 | 0.00 | 66 | 1011.3 |
| 20260507113538 | 47 | 323 | 2.0 | 9.0 | 0.00 | 0.00 | 0.00 | 68 | 1011.2 |
| 20260507113037 | 47 | 324 | 4.0 | 10.0 | 0.00 | 0.00 | 0.00 | 69 | 1011.3 |
| 20260507112534 | 47 | 336 | 3.0 | 12.0 | 0.00 | 0.00 | 0.00 | 73 | 1011.1 |
| 20260507112036 | 46 | 336 | 5.0 | 12.0 | 0.00 | 0.00 | 0.00 | 79 | 1011.1 |
| 20260507111533 | 46 | 360 | 3.0 | 7.0 | 0.00 | 0.00 | 0.00 | 87 | 1011.0 |
| 20260507111032 | 46 | 322 | 2.0 | 7.0 | 0.00 | 0.00 | 0.00 | 90 | 1011.0 |
| 20260507110534 | 46 | 355 | 1.0 | 4.0 | 0.00 | 0.00 | 0.00 | 92 | 1011.0 |
| 20260507110039 | 46 | 355 | 0.0 | 3.0 | 0.00 | 0.00 | 0.00 | 92 | 1010.9 |
| 20260507105531 | 46 | 350 | 0.0 | 2.0 | 0.00 | 0.00 | 0.00 | 93 | 1010.9 |
| 20260507105030 | 46 | 360 | 0.0 | 1.0 | 0.00 | 0.00 | 0.00 | 93 | 1010.9 |
| 20260507104530 | 46 | 360 | 0.0 | 0.0 | 0.00 | 0.00 | 0.00 | 93 | 1010.7 |
| 20260507104030 | 46 | 360 | 0.0 | 0.0 | 0.00 | 0.00 | 0.00 | 93 | 1010.4 |
| 20260507103529 | 46 | 360 | 0.0 | 0.0 | 0.00 | 0.00 | 0.00 | 93 | 1010.3 |
| 20260507103030 | 46 | 360 | 0.0 | 0.0 | 0.00 | 0.00 | 0.00 | 93 | 1010.2 |
| 20260507102527 | 45 | 360 | 0.0 | 0.0 | 0.00 | 0.00 | 0.00 | 93 | 1010.2 |
| 20260507102027 | 45 | 360 | 0.0 | 1.0 | 0.00 | 0.00 | 0.00 | 93 | 1010.3 |
| 20260507101534 | 44 | 360 | 0.0 | 1.0 | 0.00 | 0.00 | 0.00 | 92 | 1010.1 |
| 20260507101026 | 44 | 360 | 0.0 | 2.0 | 0.00 | 0.00 | 0.00 | 92 | 1009.8 |
| 20260507100525 | 44 | 360 | 1.0 | 2.0 | 0.00 | 0.00 | 0.00 | 91 | 1009.7 |
| 20260507100025 | 45 | 360 | 0.0 | 2.0 | 0.00 | 0.00 | 0.00 | 91 | 1009.7 |
| 20260507095525 | 45 | 360 | 0.0 | 0.0 | 0.00 | 0.00 | 0.00 | 91 | 1009.4 |
| 20260507095025 | 45 | 360 | 0.0 | 0.0 | 0.00 | 0.00 | 0.00 | 90 | 1009.4 |
| 20260507094523 | 45 | 360 | 0.0 | 1.0 | 0.00 | 0.00 | 0.00 | 90 | 1009.5 |
| 20260507094025 | 45 | 360 | 0.0 | 1.0 | 0.00 | 0.00 | 0.00 | 89 | 1009.5 |
| 20260507093521 | 45 | 360 | 0.0 | 1.0 | 0.00 | 0.00 | 0.00 | 89 | 1009.6 |
| 20260507093020 | 45 | 360 | 0.0 | 1.0 | 0.00 | 0.00 | 0.00 | 88 | 1009.6 |
| 20260507092520 | 46 | 360 | 0.0 | 2.0 | 0.00 | 0.00 | 0.00 | 88 | 1009.6 |
| 20260507092018 | 46 | 360 | 0.0 | 2.0 | 0.00 | 0.00 | 0.00 | 87 | 1009.4 |
| 20260507091523 | 46 | 360 | 0.0 | 3.0 | 0.00 | 0.00 | 0.00 | 86 | 1009.3 |
| 20260507091019 | 46 | 360 | 1.0 | 3.0 | 0.00 | 0.00 | 0.00 | 86 | 1009.4 |
| 20260507090520 | 46 | 360 | 0.0 | 1.0 | 0.00 | 0.00 | 0.00 | 85 | 1009.5 |
| 20260507090016 | 47 | 360 | 0.0 | 3.0 | 0.00 | 0.00 | 0.00 | 84 | 1009.6 |
| 20260507085516 | 48 | 360 | 0.0 | 5.0 | 0.00 | 0.00 | 0.00 | 82 | 1009.5 |
| 20260507085016 | 48 | 360 | 3.0 | 6.0 | 0.00 | 0.00 | 0.00 | 82 | 1009.5 |
| 20260507084519 | 48 | 360 | 2.0 | 8.0 | 0.00 | 0.00 | 0.00 | 83 | 1009.6 |
| 20260507084016 | 48 | 360 | 2.0 | 8.0 | 0.00 | 0.00 | 0.00 | 85 | 1009.7 |
| 20260507083513 | 48 | 360 | 3.0 | 9.0 | 0.00 | 0.00 | 0.00 | 86 | 1009.9 |
| 20260507083013 | 48 | 360 | 4.0 | 11.0 | 0.00 | 0.00 | 0.00 | 88 | 1009.7 |
| 20260507082513 | 48 | 360 | 4.0 | 12.0 | 0.00 | 0.00 | 0.00 | 90 | 1009.7 |
| 20260507082011 | 47 | 360 | 4.0 | 10.0 | 0.00 | 0.00 | 0.00 | 92 | 1009.8 |
| 20260507081510 | 47 | 360 | 5.0 | 11.0 | 0.00 | 0.00 | 0.00 | 93 | 1009.7 |
| 20260507081010 | 47 | 360 | 3.0 | 11.0 | 0.00 | 0.00 | 0.00 | 93 | 1009.8 |
| 20260507080508 | 48 | 360 | 3.0 | 8.0 | 0.00 | 0.00 | 0.00 | 94 | 1009.8 |
| 20260507080007 | 49 | 360 | 1.0 | 3.0 | 0.00 | 0.00 | 0.00 | 95 | 1009.9 |
| 20260507075507 | 49 | 360 | 0.0 | 2.0 | 0.00 | 0.00 | 0.00 | 95 | 1010.0 |
| 20260507075007 | 49 | 360 | 0.0 | 2.0 | 0.00 | 0.00 | 0.00 | 95 | 1010.0 |
| 20260507074507 | 49 | 360 | 0.0 | 0.0 | 0.00 | 0.00 | 0.00 | 95 | 1009.9 |
| 20260507074009 | 49 | 360 | 0.0 | 0.0 | 0.00 | 0.00 | 0.00 | 95 | 1010.0 |
| 20260507073505 | 49 | 360 | 0.0 | 0.0 | 0.00 | 0.00 | 0.00 | 95 | 1010.1 |
| 20260507073005 | 49 | 360 | 0.0 | 1.0 | 0.00 | 0.00 | 0.00 | 95 | 1010.0 |
| 20260507072505 | 49 | 360 | 0.0 | 2.0 | 0.00 | 0.00 | 0.00 | 95 | 1010.1 |
| 20260507072004 | 49 | 360 | 0.0 | 2.0 | 0.00 | 0.00 | 0.00 | 95 | 1010.2 |
| 20260507071504 | 49 | 360 | 0.0 | 2.0 | 0.00 | 0.00 | 0.00 | 95 | 1009.9 |
| 20260507071003 | 49 | 360 | 0.0 | 2.0 | 0.00 | 0.00 | 0.00 | 95 | 1009.8 |
| 20260507070502 | 49 | 360 | 0.0 | 2.0 | 0.00 | 0.00 | 0.00 | 94 | 1009.7 |
| 20260507070002 | 49 | 360 | 0.0 | 2.0 | 0.00 | 0.00 | 0.00 | 94 | 1009.7 |
| 20260507065500 | 49 | 360 | 0.0 | 0.0 | 0.00 | 0.00 | 0.00 | 94 | 1009.5 |
| 20260507065100 | 49 | 360 | 0.0 | 1.0 | 0.00 | 0.00 | 0.00 | 94 | 1009.4 |
| 20260507064600 | 49 | 360 | 0.0 | 1.0 | 0.00 | 0.00 | 0.00 | 94 | 1009.4 |
| 20260507064100 | 49 | 360 | 0.0 | 0.0 | 0.00 | 0.00 | 0.00 | 94 | 1009.4 |
| 20260507063559 | 49 | 360 | 0.0 | 1.0 | 0.00 | 0.00 | 0.00 | 94 | 1009.2 |
| 20260507063101 | 49 | 360 | 0.0 | 1.0 | 0.00 | 0.00 | 0.00 | 94 | 1009.3 |
| 20260507062558 | 49 | 93 | 0.0 | 0.0 | 0.00 | 0.00 | 0.00 | 94 | 1009.2 |
| 20260507062058 | 50 | 360 | 0.0 | 0.0 | 0.00 | 0.00 | 0.00 | 94 | 1008.8 |
| 20260507061557 | 50 | 360 | 0.0 | 0.0 | 0.00 | 0.00 | 0.00 | 94 | 1008.6 |
| 20260507061057 | 50 | 360 | 0.0 | 1.0 | 0.00 | 0.00 | 0.00 | 94 | 1008.7 |
| 20260507060556 | 50 | 360 | 0.0 | 1.0 | 0.00 | 0.00 | 0.00 | 94 | 1008.7 |
| 20260507060059 | 50 | 360 | 0.0 | 2.0 | 0.00 | 0.00 | 0.00 | 94 | 1008.9 |
| 20260507055556 | 50 | 360 | 0.0 | 2.0 | 0.00 | 0.00 | 0.00 | 94 | 1008.6 |
| 20260507055057 | 50 | 360 | 0.0 | 2.0 | 0.00 | 0.00 | 0.00 | 94 | 1008.8 |
| 20260507054555 | 50 | 360 | 0.0 | 1.0 | 0.00 | 0.00 | 0.00 | 94 | 1008.9 |
| 20260507054055 | 50 | 360 | 0.0 | 1.0 | 0.00 | 0.00 | 0.00 | 94 | 1008.9 |
| 20260507053554 | 50 | 360 | 0.0 | 0.0 | 0.00 | 0.00 | 0.00 | 94 | 1009.1 |
| 20260507053107 | 50 | 360 | 0.0 | 0.0 | 0.00 | 0.00 | 0.00 | 94 | 1008.9 |
| 20260507052553 | 50 | 360 | 0.0 | 0.0 | 0.00 | 0.00 | 0.00 | 94 | 1009.1 |
| 20260507052053 | 50 | 360 | 0.0 | 0.0 | 0.00 | 0.00 | 0.00 | 94 | 1008.8 |
| 20260507051554 | 50 | 360 | 0.0 | 0.0 | 0.00 | 0.00 | 0.00 | 94 | 1009.1 |
| 20260507051052 | 50 | 360 | 0.0 | 1.0 | 0.00 | 0.00 | 0.00 | 93 | 1009.2 |
| 20260507050551 | 50 | 360 | 0.0 | 2.0 | 0.00 | 0.00 | 0.00 | 93 | 1009.2 |
| 20260507050051 | 50 | 360 | 0.0 | 2.0 | 0.00 | 0.00 | 0.00 | 93 | 1008.8 |
| 20260507045550 | 50 | 92 | 0.0 | 1.0 | 0.00 | 0.00 | 0.00 | 93 | 1009.1 |
| 20260507045050 | 50 | 360 | 0.0 | 1.0 | 0.00 | 0.00 | 0.00 | 93 | 1009.6 |
| 20260507044559 | 50 | 360 | 0.0 | 2.0 | 0.00 | 0.00 | 0.00 | 93 | 1009.6 |
| 20260507044049 | 50 | 360 | 0.0 | 2.0 | 0.00 | 0.00 | 0.00 | 93 | 1009.3 |
| 20260507043548 | 50 | 360 | 0.0 | 2.0 | 0.00 | 0.00 | 0.00 | 93 | 1009.6 |
| 20260507043049 | 50 | 360 | 0.0 | 3.0 | 0.00 | 0.00 | 0.00 | 93 | 1009.4 |
| 20260507042546 | 51 | 360 | 1.0 | 3.0 | 0.00 | 0.00 | 0.00 | 93 | 1009.2 |
| 20260507042047 | 51 | 360 | 1.0 | 2.0 | 0.00 | 0.00 | 0.00 | 93 | 1009.4 |
| 20260507041550 | 51 | 90 | 1.0 | 4.0 | 0.00 | 0.00 | 0.00 | 94 | 1009.3 |
| 20260507041046 | 51 | 89 | 1.0 | 4.0 | 0.00 | 0.00 | 0.00 | 93 | 1009.3 |
| 20260507040545 | 51 | 88 | 2.0 | 4.0 | 0.00 | 0.00 | 0.00 | 94 | 1009.3 |
| 20260507040046 | 51 | 89 | 1.0 | 3.0 | 0.00 | 0.00 | 0.00 | 94 | 1009.4 |
| 20260507035543 | 51 | 360 | 1.0 | 3.0 | 0.00 | 0.00 | 0.00 | 94 | 1009.0 |
| 20260507035043 | 51 | 90 | 0.0 | 2.0 | 0.00 | 0.00 | 0.00 | 94 | 1009.4 |
| 20260507034546 | 51 | 88 | 0.0 | 2.0 | 0.00 | 0.00 | 0.00 | 94 | 1009.0 |
| 20260507034042 | 51 | 88 | 0.0 | 1.0 | 0.00 | 0.00 | 0.00 | 94 | 1009.2 |
| 20260507033542 | 51 | 88 | 0.0 | 3.0 | 0.00 | 0.00 | 0.00 | 94 | 1009.0 |
| 20260507033055 | 51 | 88 | 0.0 | 4.0 | 0.00 | 0.00 | 0.00 | 94 | 1009.0 |
| 20260507032542 | 51 | 88 | 1.0 | 3.0 | 0.00 | 0.00 | 0.00 | 93 | 1009.1 |
| 20260507032042 | 52 | 88 | 0.0 | 3.0 | 0.00 | 0.00 | 0.00 | 94 | 1009.0 |
| 20260507031554 | 52 | 88 | 1.0 | 3.0 | 0.00 | 0.00 | 0.00 | 94 | 1009.0 |
| 20260507031043 | 52 | 88 | 0.0 | 1.0 | 0.00 | 0.00 | 0.00 | 94 | 1009.1 |
| 20260507030540 | 52 | 87 | 0.0 | 1.0 | 0.00 | 0.00 | 0.00 | 93 | 1009.3 |
| 20260507030101 | 52 | 87 | 0.0 | 1.0 | 0.00 | 0.00 | 0.00 | 93 | 1009.2 |
| 20260507025539 | 52 | 87 | 0.0 | 2.0 | 0.00 | 0.00 | 0.00 | 93 | 1009.2 |
| 20260507025039 | 52 | 87 | 0.0 | 2.0 | 0.00 | 0.00 | 0.00 | 93 | 1009.3 |
| 20260507024601 | 52 | 87 | 0.0 | 0.0 | 0.00 | 0.00 | 0.00 | 93 | 1009.3 |
| 20260507024039 | 52 | 90 | 0.0 | 2.0 | 0.00 | 0.00 | 0.00 | 93 | 1009.3 |
| 20260507023537 | 52 | 90 | 0.0 | 2.0 | 0.00 | 0.00 | 0.00 | 93 | 1009.2 |
| 20260507023038 | 52 | 89 | 0.0 | 0.0 | 0.00 | 0.00 | 0.00 | 93 | 1009.6 |
| 20260507022537 | 52 | 88 | 0.0 | 0.0 | 0.00 | 0.00 | 0.00 | 93 | 1009.5 |
| 20260507022038 | 52 | 88 | 0.0 | 0.0 | 0.00 | 0.00 | 0.00 | 93 | 1009.6 |
| 20260507021540 | 52 | 88 | 0.0 | 1.0 | 0.00 | 0.00 | 0.00 | 93 | 1009.5 |
| 20260507021036 | 52 | 88 | 0.0 | 2.0 | 0.00 | 0.00 | 0.00 | 93 | 1009.4 |
| 20260507020536 | 52 | 87 | 0.0 | 3.0 | 0.00 | 0.00 | 0.00 | 93 | 1009.3 |
| 20260507020042 | 52 | 87 | 0.0 | 2.0 | 0.00 | 0.00 | 0.00 | 92 | 1009.2 |
| 20260507015534 | 52 | 87 | 0.0 | 3.0 | 0.00 | 0.00 | 0.00 | 92 | 1009.1 |
| 20260507015033 | 52 | 87 | 1.0 | 3.0 | 0.00 | 0.00 | 0.00 | 92 | 1009.2 |
| 20260507014542 | 53 | 87 | 0.0 | 6.0 | 0.00 | 0.00 | 0.00 | 93 | 1009.3 |
| 20260507014033 | 53 | 87 | 1.0 | 6.0 | 0.00 | 0.00 | 0.00 | 92 | 1009.2 |
| 20260507013530 | 53 | 71 | 1.0 | 4.0 | 0.00 | 0.00 | 0.00 | 92 | 1009.1 |